Regional Weather Roundup
Issued by NWS Newport/Morehead, NC

Current Version | Previous Version | Graphics & Text | Print | Product List | Glossary Off
Versions: 1 2 3 4 5 6 7 8 9 10 11 12 13 14 15 16 17 18 19 20 21 22 23 24 25 26 27 28 29 30 31 32 33 34 35 36 37 38 39 40 41 42 43 44 45 46 47 48 49 50

000
ASUS42 KMHX 280610
RWRMHX
WEATHER ROUNDUP FOR EASTERN NORTH CAROLINA
NATIONAL WEATHER SERVICE NEWPORT/MOREHEAD CITY NC
100 AM EST SUN DEC 28 2014

NOTE: "FAIR" INDICATES FEW OR NO CLOUDS BELOW 12,000 FEET
WITH NO SIGNIFICANT WEATHER AND/OR OBSTRUCTIONS TO VISIBILITY

NCZ015>017-031-032-045>047-102-103-280700-
NORTH COAST

CITY           SKY/WX    TMP DP  RH WIND       PRES   REMARKS
EDENTON        MOCLDY    46  42  85 S6        30.16F
ELIZABETH CITY MOCLDY    50  42  74 S7        30.16F
KITTY HAWK     CLOUDY    49  43  79 SW3       30.15F
MANTEO         CLOUDY    48  45  87 SW3       30.17F

$$

NCZ045>047-081-094-103-104-280700-
CENTRAL COAST

CITY           SKY/WX    TMP DP  RH WIND       PRES   REMARKS
FRISCO         MOCLDY    53  51  93 SW5       30.18F
SWANQUARTER      N/A     52 N/A N/A S7        30.15S

$$

NCZ095-097-098-100-101-280700-
SOUTHERN COAST

CITY           SKY/WX    TMP DP  RH WIND       PRES   REMARKS
BEAUFORT       MOCLDY    45  45 100 CALM      30.19F FOG
CEDAR ISLAND     N/A     52 N/A N/A SW5       30.21F
JACKSONVILLE   MOCLDY    46  43  89 CALM      30.18F
PINEY ISLAND   PTCLDY    50  45  83 S7        30.18F
WILMINGTON     PTCLDY    47  45  93 CALM      30.19F


$$

NCZ011>013-027>030-043-044-078>080-089-090>093-098-280700-
COASTAL PLAIN

CITY           SKY/WX    TMP DP  RH WIND       PRES   REMARKS
AHOSKIE        PTCLDY    44  39  83 CALM      30.16S
CLINTON        CLOUDY    47  45  95 CALM      30.19S
ELIZABETHTOWN  MOCLDY    51  44  77 S5        30.18F
GOLDSBORO      CLOUDY    49  49  98 E3        30.15F
GREENVILLE     CLOUDY    50  43  76 SW5       30.18F
HAVELOCK       MOCLDY    45  42  89 CALM      30.20F
KENANSVILLE    CLOUDY    46  43  91 SW3       30.19F
KINSTON        CLOUDY    47  43  84 SW3       30.18F
NEW BERN       CLOUDY    51  46  83 SW5       30.19F
RICHLANDS      CLOUDY    46  43  87 S3        30.18F
ROCKY MOUNT    CLOUDY    49  41  74 S6        30.15F
WASHINGTON     CLOUDY    48  43  81 CALM      30.17F
WHITEVILLE     PTCLDY    49  45  87 CALM      30.19S

$$

AMZ130-135-150-152-154-156-158-170-250-252-270-ANZ085-086-088-633-658-670-280700-
MARINE OBSERVATIONS

STATION/POSITION TIME  TEMP    WIND        PRES    WAVE   SWELL
                       AIR SEA DIR/SP/G            HT/PER HT/PER
                 (UTC) (F)     (DEG/KT/KT) (MB)    (FT/S) (FT/S)
CHESAPEAKE LIGHT 0500   49     210/ 15/ 16 1021.1
64 E VA BEACH    0600   54 53  220/  8/ 10 1020.2    4/15   3/15
DUCK             0600   52 49  200/ 10/ 11 1020.3
2 E DUCK         0600      47                N/A     3/15   3/15
10 NE DUCK       0600      51                N/A     3/15   3/15
OREGON INLET     0600   51 53  180/  4/  5 1021.6
13E OREGON INLT  0600      52                N/A     3/14   2/14
HATTERAS CG      0600   56 54  210/  6/  7 1022.3
DIAMOND BUOY     0600   66                 1022.1    4/15
17 S OCRACOKE    NOT AVBL
CAPE LOOKOUT     0500   58     190/  5/  5 1022.8
BEAUFORT LAB     0600   52 55   CALM  /  1 1021.1
30 SE NEW RIVER  0600   61 61   CALM  /  2 1022.6    3/15   3/15
5 SE WRIGHTSVLE  NOT AVBL
225 S CAPE HAT   0525   70 74  160/  8/ 10 1023.7    5/15   5/15
41 SE CHARLESTON 0600   72 74  220/  8/ 10 1021.7    2/15   2/15

$$


USA.gov is the U.S. government's official web portal to all federal, state and local government web resources and services.